Location: Krasnoyarskiy Pitomnik
(51.1333°N, 71.6167°E)
Time: 23:51:40
(UTC+00:00)

CZ-2D DEB - Pass Details

Date: 05 December 2025
Orbit: 551 x 569 km, 98.3° (Epoch: 20 January)

Event Time Altitude Azimuth Distance (km) Brightness Sun altitude
Rises 01:27:23 0° 190° (S) 2,757 ? -13.7°
Reaches altitude 10° 01:29:43 10° 201° (SSW) 1,861 ? -13.4°
Maximum altitude 01:33:18 30° 263° (W) 1,020 ? -12.9°
Enters shadow 01:35:50 16° 317° (NW) 1,502 ? -12.5°
